This is the latest recevied weather packets stored in our database for station/object WW3TRG. If no packets are shown the sender has not sent any weather packets the latest 10 day(s).
| Time | Temp. | Humidity | Pressure | Rain* | Wind** | Luminosity | Snow |
|---|---|---|---|---|---|---|---|
| 1777508224 | 11.11° C | 99% | 1008.4 hPa | 1.27 mm | - | 0 W/m² | - |
| 1777507922 | 11.11° C | 99% | 1008.2 hPa | 0.51 mm | - | 0 W/m² | - |
| 1777507619 | 11.11° C | 99% | 1008.3 hPa | 0 mm | - | 0 W/m² | - |
| 1777507315 | 11.11° C | 99% | 1008.4 hPa | 0.51 mm | - | 0 W/m² | - |
| 1777507013 | 11.67° C | 99% | 1008.4 hPa | 0.51 mm | - | 0 W/m² | - |
| 1777506710 | 11.67° C | 99% | 1008.4 hPa | 0 mm | - | 0 W/m² | - |
| 1777506406 | 11.67° C | 99% | 1008.7 hPa | 0.51 mm | - | 0 W/m² | - |
| 1777506102 | 11.67° C | 99% | 1008.8 hPa | 1.27 mm | - | 0 W/m² | - |
| 1777505798 | 11.67° C | 99% | 1008.4 hPa | 1.27 mm | - | 0 W/m² | - |
| 1777505495 | 11.67° C | 99% | 1008.4 hPa | 2.29 mm | - | 0 W/m² | - |
| 1777505192 | 11.67° C | 99% | 1008.5 hPa | 3.05 mm | - | 0 W/m² | - |
| 1777504888 | 11.67° C | 99% | 1008.4 hPa | 3.05 mm | - | 0 W/m² | - |
| 1777504586 | 11.67° C | 99% | 1008.2 hPa | 2.29 mm | - | 0 W/m² | - |
| 1777504281 | 12.22° C | 99% | 1008.7 hPa | 1.27 mm | - | 0 W/m² | - |
| 1777503977 | 11.67° C | 99% | 1008.4 hPa | 1.27 mm | - | 0 W/m² | - |
| 1777503674 | 11.67° C | 99% | 1008.3 hPa | 0.51 mm | - | 1 W/m² | - |
| 1777503370 | 11.67° C | 99% | 1008.3 hPa | 0 mm | - | 2 W/m² | - |
| 1777503067 | 11.67° C | 99% | 1008.4 hPa | 0.51 mm | - | 5 W/m² | - |
| 1777502764 | 11.67° C | 99% | 1008.6 hPa | 0 mm | - | 6 W/m² | - |
| 1777502461 | 11.67° C | 99% | 1008.4 hPa | 0 mm | - | 9 W/m² | - |
| 1777502158 | 11.67° C | 99% | 1008.6 hPa | 0.51 mm | - | 12 W/m² | - |
| 1777501856 | 11.67° C | 99% | 1008.3 hPa | 0.51 mm | - | 20 W/m² | - |
| 1777501552 | 11.67° C | 99% | 1008.4 hPa | 0.51 mm | - | 18 W/m² | - |
| 1777501249 | 11.67° C | 99% | 1008.3 hPa | 0.51 mm | - | 31 W/m² | - |
| 1777500947 | 11.67° C | 99% | 1008.9 hPa | 0.51 mm | - | 21 W/m² | - |
* Rain latest hour (hover to see other rain measurements)
** Current wind speed in m/s (hover to see current wind gust speed)